TWB651 RKSS-RCKH

Flight info

Callsign TWB651
Flight time 2h 25m
Altitude 34000
Route BULTI Y711 MUGUS Y742 SALMI B576 APU A1 PIDGY T13 LUGIA
Aircraft B738/M-VGDW/C

Departure

Time 2026-04-25 08:51
Airport Gimpo International Airport (RKSS)

Arrival

Time 2026-04-25 11:16
Airport Kaohsiung International Airport (RCKH)
Time Latitude Longitude Altitude Speed Heading
2026-04-25 08:27 37.56531 126.79887 67 ft 0 kts 136°
2026-04-25 08:39 37.56540 126.79878 67 ft 2 kts 136°
2026-04-25 08:39 37.56550 126.79864 67 ft 2 kts 136°
2026-04-25 08:39 37.56561 126.79851 67 ft 2 kts 136°
2026-04-25 08:40 37.56572 126.79839 67 ft 2 kts 136°
2026-04-25 08:40 37.56583 126.79825 67 ft 2 kts 141°
2026-04-25 08:40 37.56596 126.79816 67 ft 2 kts 168°
2026-04-25 08:40 37.56611 126.79816 67 ft 2 kts 190°
2026-04-25 08:41 37.56625 126.79822 67 ft 2 kts 211°
2026-04-25 08:41 37.56632 126.79828 67 ft 1 kts 224°
2026-04-25 08:41 37.56636 126.79834 67 ft 0 kts 225°
2026-04-25 08:44 37.56634 126.79830 67 ft 1 kts 225°
2026-04-25 08:44 37.56622 126.79816 67 ft 3 kts 224°
2026-04-25 08:44 37.56598 126.79786 67 ft 6 kts 224°
2026-04-25 08:45 37.56560 126.79740 67 ft 8 kts 225°
2026-04-25 08:45 37.56508 126.79674 67 ft 13 kts 225°
2026-04-25 08:45 37.56433 126.79580 67 ft 17 kts 225°
2026-04-25 08:45 37.56344 126.79469 67 ft 18 kts 225°
2026-04-25 08:46 37.56250 126.79349 67 ft 19 kts 225°
2026-04-25 08:46 37.56187 126.79270 67 ft 4 kts 221°
2026-04-25 08:46 37.56182 126.79266 67 ft 2 kts 200°
2026-04-25 08:46 37.56150 126.79280 67 ft 8 kts 142°
2026-04-25 08:47 37.56095 126.79347 67 ft 13 kts 135°
2026-04-25 08:47 37.56011 126.79453 67 ft 20 kts 136°
2026-04-25 08:47 37.55905 126.79586 67 ft 23 kts 135°
2026-04-25 08:47 37.55778 126.79746 67 ft 28 kts 135°
2026-04-25 08:48 37.55629 126.79932 67 ft 29 kts 136°
2026-04-25 08:48 37.55493 126.80104 67 ft 29 kts 135°
2026-04-25 08:48 37.55337 126.80299 67 ft 32 kts 135°
2026-04-25 08:48 37.55213 126.80455 67 ft 16 kts 135°
2026-04-25 08:49 37.55140 126.80507 67 ft 10 kts 212°
2026-04-25 08:49 37.55085 126.80437 67 ft 12 kts 227°
2026-04-25 08:49 37.55020 126.80354 67 ft 14 kts 225°
2026-04-25 08:49 37.54944 126.80259 67 ft 16 kts 225°
2026-04-25 08:50 37.54860 126.80154 67 ft 17 kts 224°
2026-04-25 08:50 37.54835 126.80054 67 ft 15 kts 314°
2026-04-25 08:50 37.55005 126.79845 67 ft 69 kts 315°
2026-04-25 08:50 37.55528 126.79189 68 ft 141 kts 315°
2026-04-25 08:51 37.56330 126.78208 486 ft 168 kts 314°
2026-04-25 08:51 37.57149 126.77191 1412 ft 169 kts 313°
2026-04-25 08:51 37.57981 126.76131 2069 ft 178 kts 314°
2026-04-25 08:51 37.58908 126.74984 2543 ft 198 kts 313°
2026-04-25 08:52 37.59973 126.73664 2813 ft 232 kts 314°
2026-04-25 08:52 37.61179 126.72164 3414 ft 252 kts 313°
2026-04-25 08:52 37.62192 126.70396 4079 ft 253 kts 290°
2026-04-25 08:52 37.62307 126.68200 4788 ft 256 kts 256°
2026-04-25 08:53 37.61367 126.66316 5494 ft 263 kts 224°
2026-04-25 08:53 37.59913 126.64880 6211 ft 266 kts 224°
2026-04-25 08:53 37.58708 126.63171 6905 ft 265 kts 234°
2026-04-25 08:53 37.57534 126.61375 7604 ft 268 kts 231°
2026-04-25 08:54 37.56153 126.59753 8305 ft 274 kts 216°
2026-04-25 08:54 37.54378 126.58860 9008 ft 282 kts 195°
2026-04-25 08:54 37.52400 126.58792 9707 ft 292 kts 173°
2026-04-25 08:54 37.50412 126.59418 10421 ft 297 kts 169°
2026-04-25 08:55 37.48405 126.60049 11122 ft 300 kts 171°
2026-04-25 08:55 37.46394 126.60644 11816 ft 302 kts 171°
2026-04-25 08:55 37.44336 126.61258 12519 ft 309 kts 171°
2026-04-25 08:55 37.42232 126.61886 13218 ft 317 kts 171°
2026-04-25 08:56 37.40052 126.62534 13925 ft 324 kts 172°
2026-04-25 08:56 37.37848 126.63188 14625 ft 330 kts 172°
2026-04-25 08:56 37.35596 126.63856 15278 ft 338 kts 172°
2026-04-25 08:56 37.33303 126.64535 15793 ft 350 kts 172°
2026-04-25 08:57 37.30837 126.65260 15895 ft 375 kts 172°
2026-04-25 08:57 37.28282 126.66017 16415 ft 386 kts 172°
2026-04-25 08:57 37.25658 126.66798 17066 ft 393 kts 172°
2026-04-25 08:57 37.22984 126.67591 17749 ft 398 kts 173°
2026-04-25 08:58 37.20301 126.68385 18431 ft 403 kts 173°
2026-04-25 08:58 37.17558 126.69196 19108 ft 408 kts 173°
2026-04-25 08:58 37.14794 126.70012 19771 ft 412 kts 173°
2026-04-25 08:58 37.11991 126.70838 20395 ft 417 kts 174°
2026-04-25 08:59 37.09206 126.71659 21054 ft 419 kts 173°
2026-04-25 08:59 37.06343 126.72503 21702 ft 422 kts 173°
2026-04-25 08:59 37.03492 126.73342 22311 ft 425 kts 173°
2026-04-25 08:59 37.00631 126.74184 22911 ft 428 kts 173°
2026-04-25 09:00 36.97727 126.75037 23509 ft 431 kts 173°
2026-04-25 09:00 36.94785 126.75901 24062 ft 434 kts 173°
2026-04-25 09:00 36.91872 126.76756 24604 ft 437 kts 173°
2026-04-25 09:00 36.88912 126.77624 25110 ft 441 kts 173°
2026-04-25 09:01 36.85903 126.78504 25601 ft 445 kts 173°
2026-04-25 09:01 36.82888 126.79388 26102 ft 448 kts 173°
2026-04-25 09:01 36.79848 126.80277 26599 ft 450 kts 174°
2026-04-25 09:01 36.76830 126.81158 27010 ft 454 kts 174°
2026-04-25 09:02 36.73716 126.81965 27508 ft 453 kts 178°
2026-04-25 09:02 36.70614 126.82388 27884 ft 451 kts 184°
2026-04-25 09:02 36.67484 126.82529 28363 ft 451 kts 186°
2026-04-25 09:02 36.64386 126.82655 28774 ft 454 kts 185°
2026-04-25 09:03 36.61198 126.82813 29092 ft 459 kts 185°
2026-04-25 09:03 36.58038 126.82980 29427 ft 463 kts 185°
2026-04-25 09:03 36.54802 126.83141 29956 ft 462 kts 186°
2026-04-25 09:03 36.51653 126.83284 30571 ft 458 kts 186°
2026-04-25 09:04 36.48458 126.83415 31027 ft 457 kts 186°
2026-04-25 09:04 36.45326 126.83517 31500 ft 455 kts 179°
2026-04-25 09:04 36.42199 126.83614 32094 ft 451 kts 178°
2026-04-25 09:04 36.39046 126.83726 32519 ft 451 kts 180°
2026-04-25 09:05 36.35957 126.83573 32930 ft 450 kts 185°
2026-04-25 09:05 36.32872 126.83190 33346 ft 448 kts 186°
2026-04-25 09:05 36.29751 126.82806 33736 ft 448 kts 185°
2026-04-25 09:05 36.26694 126.82474 34003 ft 449 kts 185°
2026-04-25 09:06 36.23581 126.82143 33997 ft 452 kts 185°
2026-04-25 09:06 36.17341 126.81464 34000 ft 447 kts 185°
2026-04-25 09:07 36.11186 126.80794 34000 ft 446 kts 185°
2026-04-25 09:07 36.05025 126.80125 34000 ft 447 kts 185°
2026-04-25 09:08 35.98853 126.79456 34000 ft 447 kts 185°
2026-04-25 09:08 35.92669 126.78786 34000 ft 447 kts 185°
2026-04-25 09:09 35.86503 126.78119 34000 ft 447 kts 185°
2026-04-25 09:09 35.80333 126.77450 34000 ft 447 kts 185°
2026-04-25 09:10 35.74131 126.76779 34000 ft 447 kts 185°
2026-04-25 09:10 35.67992 126.76116 33999 ft 447 kts 185°
2026-04-25 09:11 35.58728 126.75118 34000 ft 446 kts 185°
2026-04-25 09:11 35.52589 126.74458 34000 ft 447 kts 185°
2026-04-25 09:12 35.46401 126.73794 34000 ft 447 kts 185°
2026-04-25 09:12 35.40263 126.73137 34000 ft 447 kts 185°
2026-04-25 09:13 35.34097 126.72478 34000 ft 447 kts 185°
2026-04-25 09:13 35.27927 126.71819 34000 ft 447 kts 185°
2026-04-25 09:14 35.21753 126.71161 34000 ft 447 kts 185°
2026-04-25 09:14 35.15571 126.70503 34000 ft 447 kts 185°
2026-04-25 09:15 35.09409 126.69848 34000 ft 447 kts 185°
2026-04-25 09:15 35.03227 126.69191 34000 ft 447 kts 185°
2026-04-25 09:16 34.97080 126.68539 34000 ft 447 kts 185°
2026-04-25 09:16 34.90890 126.67884 34000 ft 447 kts 185°
2026-04-25 09:17 34.81621 126.66905 34000 ft 447 kts 185°
2026-04-25 09:18 34.75489 126.66258 34000 ft 447 kts 185°
2026-04-25 09:18 34.69309 126.65608 34000 ft 447 kts 185°
2026-04-25 09:19 34.63141 126.64959 34000 ft 447 kts 185°
2026-04-25 09:19 34.56969 126.64311 34000 ft 447 kts 185°
2026-04-25 09:20 34.50805 126.63665 34000 ft 447 kts 185°
2026-04-25 09:20 34.44635 126.63020 34000 ft 447 kts 185°
2026-04-25 09:21 34.38500 126.62378 34000 ft 447 kts 185°
2026-04-25 09:21 34.32315 126.61733 34000 ft 447 kts 185°
2026-04-25 09:22 34.26138 126.61090 34000 ft 447 kts 185°
2026-04-25 09:22 34.19966 126.60446 34000 ft 447 kts 185°
2026-04-25 09:23 34.13839 126.59807 34000 ft 447 kts 185°
2026-04-25 09:23 34.07635 126.59161 34000 ft 447 kts 185°
2026-04-25 09:24 34.01478 126.58521 34000 ft 447 kts 185°
2026-04-25 09:24 33.95332 126.57883 34000 ft 447 kts 185°
2026-04-25 09:25 33.89166 126.57243 33999 ft 447 kts 185°
2026-04-25 09:25 33.83070 126.56029 33999 ft 446 kts 196°
2026-04-25 09:26 33.77201 126.53576 33999 ft 447 kts 200°
2026-04-25 09:26 33.71390 126.51118 33999 ft 447 kts 199°
2026-04-25 09:27 33.65551 126.48628 33999 ft 447 kts 200°
2026-04-25 09:27 33.59705 126.46117 33999 ft 447 kts 200°
2026-04-25 09:28 33.53873 126.43609 33999 ft 447 kts 200°
2026-04-25 09:28 33.48060 126.41107 34000 ft 447 kts 200°
2026-04-25 09:29 33.42256 126.38611 34000 ft 447 kts 200°
2026-04-25 09:29 33.36391 126.36091 34000 ft 447 kts 200°
2026-04-25 09:30 33.30562 126.33589 34000 ft 447 kts 199°
2026-04-25 09:30 33.24765 126.31104 33999 ft 447 kts 199°
2026-04-25 09:31 33.18940 126.28610 33999 ft 447 kts 199°
2026-04-25 09:31 33.13099 126.26114 33999 ft 446 kts 199°
2026-04-25 09:32 33.07301 126.23638 33999 ft 446 kts 199°
2026-04-25 09:32 33.01451 126.21144 33999 ft 446 kts 199°
2026-04-25 09:33 32.95652 126.18662 33999 ft 446 kts 200°
2026-04-25 09:33 32.89817 126.16153 33999 ft 446 kts 200°
2026-04-25 09:34 32.84014 126.13665 34000 ft 446 kts 200°
2026-04-25 09:34 32.78199 126.11175 34000 ft 446 kts 200°
2026-04-25 09:35 32.72395 126.08694 34000 ft 446 kts 200°
2026-04-25 09:35 32.66564 126.06206 34000 ft 446 kts 200°
2026-04-25 09:36 32.60762 126.03732 34000 ft 446 kts 200°
2026-04-25 09:36 32.54959 126.01262 33999 ft 446 kts 200°
2026-04-25 09:37 32.49103 125.98773 34000 ft 446 kts 200°
2026-04-25 09:37 32.43303 125.96313 33999 ft 446 kts 200°
2026-04-25 09:38 32.37497 125.93856 34000 ft 446 kts 200°
2026-04-25 09:38 32.31665 125.91389 34000 ft 446 kts 200°
2026-04-25 09:39 32.25828 125.88925 34000 ft 446 kts 200°
2026-04-25 09:39 32.20034 125.86482 34000 ft 446 kts 200°
2026-04-25 09:40 32.11282 125.82798 34000 ft 446 kts 200°
2026-04-25 09:40 32.05474 125.80357 34000 ft 446 kts 200°
2026-04-25 09:41 31.99657 125.77916 34000 ft 446 kts 200°
2026-04-25 09:41 31.93835 125.75467 34000 ft 446 kts 200°
2026-04-25 09:42 31.87977 125.73005 33999 ft 446 kts 200°
2026-04-25 09:42 31.82170 125.70569 33999 ft 446 kts 200°
2026-04-25 09:43 31.76340 125.68127 33999 ft 446 kts 200°
2026-04-25 09:43 31.70536 125.65698 33999 ft 446 kts 200°
2026-04-25 09:44 31.64686 125.63248 33999 ft 446 kts 200°
2026-04-25 09:44 31.58862 125.60812 33999 ft 446 kts 200°
2026-04-25 09:45 31.53058 125.58388 34000 ft 446 kts 200°
2026-04-25 09:45 31.47214 125.55940 34000 ft 446 kts 200°
2026-04-25 09:46 31.41413 125.53510 33999 ft 446 kts 200°
2026-04-25 09:46 31.35582 125.51072 34000 ft 446 kts 200°
2026-04-25 09:47 31.29735 125.48631 34000 ft 446 kts 200°
2026-04-25 09:47 31.23932 125.46210 34000 ft 446 kts 200°
2026-04-25 09:48 31.18098 125.43781 34000 ft 446 kts 200°
2026-04-25 09:48 31.12269 125.41357 34000 ft 446 kts 200°
2026-04-25 09:49 31.06461 125.38946 34000 ft 446 kts 200°
2026-04-25 09:49 31.00624 125.36524 34000 ft 446 kts 200°
2026-04-25 09:50 30.94800 125.34112 33999 ft 446 kts 199°
2026-04-25 09:50 30.88966 125.31699 34000 ft 445 kts 199°
2026-04-25 09:51 30.83161 125.29301 34000 ft 445 kts 199°
2026-04-25 09:51 30.77327 125.26894 34000 ft 445 kts 199°
2026-04-25 09:52 30.71517 125.24499 34000 ft 445 kts 199°
2026-04-25 09:52 30.65693 125.22102 34000 ft 445 kts 199°
2026-04-25 09:53 30.59908 125.19724 34000 ft 445 kts 199°
2026-04-25 09:53 30.54050 125.17320 34000 ft 445 kts 199°
2026-04-25 09:54 30.48230 125.14934 34000 ft 445 kts 199°
2026-04-25 09:54 30.42418 125.12553 33999 ft 445 kts 199°
2026-04-25 09:55 30.36598 125.10171 34000 ft 445 kts 199°
2026-04-25 09:55 30.30772 125.07790 33999 ft 445 kts 199°
2026-04-25 09:56 30.24980 125.05427 33999 ft 445 kts 199°
2026-04-25 09:56 30.19150 125.03050 34000 ft 445 kts 199°
2026-04-25 09:57 30.13303 125.00669 34000 ft 445 kts 199°
2026-04-25 09:57 30.07485 124.98303 34000 ft 445 kts 199°
2026-04-25 09:58 30.01681 124.95946 33999 ft 445 kts 199°
2026-04-25 09:58 29.95870 124.93526 34000 ft 445 kts 200°
2026-04-25 09:59 29.90078 124.91027 33999 ft 445 kts 200°
2026-04-25 09:59 29.84307 124.88563 34000 ft 445 kts 200°
2026-04-25 10:00 29.78517 124.86094 34000 ft 445 kts 200°
2026-04-25 10:00 29.72701 124.83617 34000 ft 445 kts 200°
2026-04-25 10:01 29.66919 124.81159 33999 ft 445 kts 200°
2026-04-25 10:01 29.61151 124.78710 33999 ft 445 kts 200°
2026-04-25 10:02 29.55330 124.76242 34000 ft 445 kts 200°
2026-04-25 10:02 29.49558 124.73798 33999 ft 445 kts 200°
2026-04-25 10:03 29.43766 124.71347 33999 ft 445 kts 200°
2026-04-25 10:03 29.37959 124.68894 33999 ft 445 kts 200°
2026-04-25 10:04 29.32178 124.66455 34000 ft 445 kts 200°
2026-04-25 10:04 29.26388 124.64015 34000 ft 445 kts 200°
2026-04-25 10:05 29.20604 124.61581 34000 ft 445 kts 200°
2026-04-25 10:05 29.14784 124.59134 34000 ft 445 kts 200°
2026-04-25 10:06 29.08993 124.56702 34000 ft 445 kts 200°
2026-04-25 10:06 29.03222 124.54282 34000 ft 445 kts 200°
2026-04-25 10:07 28.97447 124.51753 33999 ft 445 kts 204°
2026-04-25 10:07 28.92103 124.48272 34001 ft 445 kts 215°
2026-04-25 10:08 28.87055 124.44216 33999 ft 446 kts 215°
2026-04-25 10:08 28.81948 124.40190 33999 ft 445 kts 215°
2026-04-25 10:09 28.76885 124.36154 33999 ft 445 kts 215°
2026-04-25 10:09 28.71837 124.32126 34000 ft 445 kts 215°
2026-04-25 10:10 28.66789 124.28094 34000 ft 445 kts 215°
2026-04-25 10:10 28.61739 124.24062 34000 ft 445 kts 215°
2026-04-25 10:11 28.56664 124.20013 34000 ft 445 kts 215°
2026-04-25 10:11 28.51623 124.15994 33999 ft 445 kts 215°
2026-04-25 10:12 28.46559 124.11962 34000 ft 445 kts 215°
2026-04-25 10:13 28.38994 124.05947 34000 ft 445 kts 215°
2026-04-25 10:13 28.33949 124.01942 34000 ft 445 kts 215°
2026-04-25 10:14 28.28895 123.97905 33999 ft 445 kts 216°
2026-04-25 10:14 28.23886 123.93803 34000 ft 445 kts 216°
2026-04-25 10:15 28.18887 123.89733 34000 ft 445 kts 216°
2026-04-25 10:15 28.13876 123.85658 34000 ft 445 kts 216°
2026-04-25 10:16 28.08875 123.81598 34000 ft 445 kts 216°
2026-04-25 10:16 28.03854 123.77525 34000 ft 445 kts 216°
2026-04-25 10:17 27.98851 123.73474 34000 ft 445 kts 216°
2026-04-25 10:17 27.93825 123.69408 34000 ft 445 kts 216°
2026-04-25 10:18 27.88811 123.65331 33999 ft 445 kts 216°
2026-04-25 10:18 27.83819 123.61266 33999 ft 445 kts 216°
2026-04-25 10:19 27.78824 123.57207 33999 ft 445 kts 216°
2026-04-25 10:19 27.73814 123.53140 33999 ft 445 kts 216°
2026-04-25 10:20 27.68796 123.49072 33999 ft 445 kts 216°
2026-04-25 10:20 27.63791 123.45019 33999 ft 445 kts 216°
2026-04-25 10:21 27.58780 123.40966 33999 ft 445 kts 216°
2026-04-25 10:21 27.53752 123.36903 33999 ft 445 kts 216°
2026-04-25 10:22 27.48732 123.32853 33999 ft 445 kts 215°
2026-04-25 10:22 27.43742 123.28831 33999 ft 445 kts 215°
2026-04-25 10:23 27.38710 123.24779 33999 ft 445 kts 215°
2026-04-25 10:23 27.33683 123.20737 33999 ft 445 kts 215°
2026-04-25 10:24 27.28668 123.16708 34000 ft 445 kts 215°
2026-04-25 10:24 27.23662 123.12691 33999 ft 445 kts 215°
2026-04-25 10:25 27.18638 123.08665 33999 ft 445 kts 215°
2026-04-25 10:25 27.13626 123.04653 34000 ft 445 kts 215°
2026-04-25 10:26 27.08585 123.00622 34000 ft 445 kts 215°
2026-04-25 10:26 27.03560 122.96616 34000 ft 445 kts 215°
2026-04-25 10:27 26.98535 122.92619 34000 ft 445 kts 215°
2026-04-25 10:27 26.93495 122.88614 34000 ft 445 kts 215°
2026-04-25 10:28 26.88486 122.84637 33999 ft 445 kts 215°
2026-04-25 10:28 26.83428 122.80627 33999 ft 445 kts 215°
2026-04-25 10:29 26.78358 122.76611 33999 ft 445 kts 215°
2026-04-25 10:29 26.73348 122.72647 33999 ft 445 kts 215°
2026-04-25 10:30 26.68286 122.68647 33999 ft 445 kts 215°
2026-04-25 10:30 26.63263 122.64679 33999 ft 445 kts 215°
2026-04-25 10:31 26.58213 122.60693 33999 ft 444 kts 215°
2026-04-25 10:31 26.53209 122.56750 33999 ft 444 kts 215°
2026-04-25 10:32 26.48164 122.52777 34000 ft 444 kts 215°
2026-04-25 10:32 26.43137 122.48823 34000 ft 444 kts 215°
2026-04-25 10:33 26.38094 122.44861 34000 ft 444 kts 215°
2026-04-25 10:33 26.33051 122.40903 34000 ft 444 kts 215°
2026-04-25 10:34 26.28030 122.36967 34000 ft 444 kts 215°
2026-04-25 10:34 26.22988 122.33018 33999 ft 444 kts 215°
2026-04-25 10:35 26.17948 122.29076 33999 ft 444 kts 215°
2026-04-25 10:35 26.12890 122.25127 33999 ft 444 kts 214°
2026-04-25 10:36 26.07850 122.21263 33999 ft 444 kts 214°
2026-04-25 10:36 26.02748 122.17363 33999 ft 444 kts 214°
2026-04-25 10:37 25.97673 122.13483 33999 ft 444 kts 214°
2026-04-25 10:37 25.92610 122.09615 33999 ft 444 kts 214°
2026-04-25 10:38 25.87520 122.05730 34000 ft 444 kts 214°
2026-04-25 10:38 25.82446 122.01862 34000 ft 444 kts 214°
2026-04-25 10:39 25.77371 121.97997 34000 ft 444 kts 214°
2026-04-25 10:39 25.72286 121.94128 33999 ft 444 kts 214°
2026-04-25 10:40 25.67250 121.90254 33999 ft 444 kts 215°
2026-04-25 10:40 25.62199 121.86359 33999 ft 444 kts 215°
2026-04-25 10:41 25.57141 121.82463 33999 ft 444 kts 215°
2026-04-25 10:41 25.52050 121.78546 34000 ft 444 kts 215°
2026-04-25 10:42 25.47005 121.74670 34000 ft 444 kts 215°
2026-04-25 10:42 25.41953 121.70792 33999 ft 444 kts 215°
2026-04-25 10:43 25.36888 121.66909 34000 ft 444 kts 215°
2026-04-25 10:43 25.31817 121.63025 34000 ft 444 kts 215°
2026-04-25 10:44 25.26768 121.59162 34000 ft 444 kts 215°
2026-04-25 10:44 25.21709 121.55292 33999 ft 444 kts 215°
2026-04-25 10:45 25.16933 121.50946 33999 ft 444 kts 226°
2026-04-25 10:45 25.12908 121.45828 34000 ft 444 kts 230°
2026-04-25 10:46 25.08828 121.40627 34000 ft 444 kts 229°
2026-04-25 10:46 25.04796 121.35455 34000 ft 444 kts 230°
2026-04-25 10:47 25.00783 121.30287 33999 ft 444 kts 229°
2026-04-25 10:47 24.96772 121.25119 33999 ft 444 kts 229°
2026-04-25 10:48 24.92749 121.19934 33999 ft 444 kts 229°
2026-04-25 10:48 24.88759 121.14794 34000 ft 444 kts 229°
2026-04-25 10:49 24.84641 121.09737 33999 ft 444 kts 224°
2026-04-25 10:49 24.79759 121.05608 34001 ft 444 kts 210°
2026-04-25 10:50 24.74425 121.02236 34000 ft 444 kts 210°
2026-04-25 10:50 24.69088 120.98772 33999 ft 444 kts 210°
2026-04-25 10:51 24.63779 120.95374 34000 ft 444 kts 210°
2026-04-25 10:51 24.58461 120.91983 34000 ft 444 kts 210°
2026-04-25 10:52 24.53142 120.88599 33999 ft 444 kts 210°
2026-04-25 10:52 24.47810 120.85216 34000 ft 444 kts 210°
2026-04-25 10:53 24.43671 120.82591 34029 ft 441 kts 209°
2026-04-25 10:53 24.41048 120.80932 34046 ft 430 kts 208°
2026-04-25 10:53 24.38520 120.79338 34047 ft 425 kts 208°
2026-04-25 10:54 24.33326 120.76224 34047 ft 428 kts 207°
2026-04-25 10:54 24.28091 120.73100 34047 ft 430 kts 207°
2026-04-25 10:55 24.22882 120.69984 33958 ft 431 kts 207°
2026-04-25 10:55 24.20237 120.68403 33559 ft 434 kts 207°
2026-04-25 10:55 24.17610 120.66833 33159 ft 432 kts 207°
2026-04-25 10:55 24.14999 120.65273 32761 ft 429 kts 207°
2026-04-25 10:56 24.12374 120.63705 32360 ft 428 kts 207°
2026-04-25 10:56 24.09761 120.62146 31874 ft 430 kts 207°
2026-04-25 10:56 24.07150 120.60589 31378 ft 433 kts 207°
2026-04-25 10:56 24.04519 120.59019 30880 ft 435 kts 207°
2026-04-25 10:57 24.01867 120.57439 30380 ft 436 kts 207°
2026-04-25 10:57 23.99192 120.55844 29877 ft 437 kts 207°
2026-04-25 10:57 23.96533 120.54261 29378 ft 439 kts 207°
2026-04-25 10:57 23.93846 120.52661 28875 ft 440 kts 207°
2026-04-25 10:58 23.91163 120.51065 28375 ft 441 kts 207°
2026-04-25 10:58 23.88482 120.49470 27876 ft 442 kts 207°
2026-04-25 10:58 23.85804 120.47881 27379 ft 444 kts 207°
2026-04-25 10:58 23.83057 120.46304 26874 ft 444 kts 206°
2026-04-25 10:59 23.80315 120.44776 26374 ft 445 kts 206°
2026-04-25 10:59 23.77545 120.43230 25870 ft 446 kts 206°
2026-04-25 10:59 23.74827 120.41701 25365 ft 448 kts 206°
2026-04-25 10:59 23.72065 120.40147 24778 ft 449 kts 206°
2026-04-25 11:00 23.69296 120.38591 24175 ft 447 kts 206°
2026-04-25 11:00 23.66539 120.37042 23571 ft 443 kts 206°
2026-04-25 11:00 23.63834 120.35522 22973 ft 438 kts 206°
2026-04-25 11:00 23.61136 120.34007 22370 ft 434 kts 205°
2026-04-25 11:01 23.58476 120.32513 21770 ft 430 kts 205°
2026-04-25 11:01 23.55841 120.31035 21170 ft 427 kts 205°
2026-04-25 11:01 23.53228 120.29569 20571 ft 424 kts 205°
2026-04-25 11:01 23.50638 120.28117 20059 ft 419 kts 205°
2026-04-25 11:02 23.48061 120.26672 20018 ft 411 kts 205°
2026-04-25 11:02 23.45505 120.25241 19960 ft 421 kts 205°
2026-04-25 11:02 23.42867 120.23766 19609 ft 425 kts 205°
2026-04-25 11:02 23.40285 120.22319 19179 ft 419 kts 205°
2026-04-25 11:03 23.37722 120.20884 18755 ft 414 kts 205°
2026-04-25 11:03 23.35118 120.19556 18325 ft 410 kts 200°
2026-04-25 11:03 23.32453 120.18565 17904 ft 407 kts 195°
2026-04-25 11:03 23.29739 120.17737 17479 ft 406 kts 194°
2026-04-25 11:04 23.27059 120.16912 17057 ft 404 kts 194°
2026-04-25 11:04 23.24358 120.16072 16608 ft 402 kts 194°
2026-04-25 11:04 23.21667 120.15247 16154 ft 399 kts 194°
2026-04-25 11:04 23.19913 120.14715 15857 ft 398 kts 194°
2026-04-25 11:05 23.16384 120.13648 15052 ft 397 kts 194°
2026-04-25 11:05 23.13746 120.12852 14427 ft 394 kts 194°
2026-04-25 11:05 23.11076 120.12049 13792 ft 392 kts 194°
2026-04-25 11:05 23.08483 120.11270 13171 ft 390 kts 194°
2026-04-25 11:06 23.05896 120.10493 12548 ft 388 kts 194°
2026-04-25 11:06 23.03277 120.09708 11914 ft 386 kts 194°
2026-04-25 11:06 23.00730 120.08945 11294 ft 384 kts 194°
2026-04-25 11:06 22.98167 120.08177 10667 ft 382 kts 193°
2026-04-25 11:07 22.95625 120.07416 10043 ft 381 kts 193°
2026-04-25 11:07 22.93071 120.06653 9415 ft 380 kts 193°
2026-04-25 11:07 22.90553 120.05900 8794 ft 379 kts 194°
2026-04-25 11:07 22.87987 120.05393 8148 ft 371 kts 180°
2026-04-25 11:08 22.85464 120.05604 7528 ft 350 kts 170°
2026-04-25 11:08 22.83126 120.05948 6904 ft 336 kts 171°
2026-04-25 11:08 22.80848 120.06248 6300 ft 323 kts 172°
2026-04-25 11:08 22.78681 120.06535 5831 ft 308 kts 172°
2026-04-25 11:09 22.76612 120.06811 5456 ft 292 kts 172°
2026-04-25 11:09 22.74668 120.07070 5091 ft 279 kts 172°
2026-04-25 11:09 22.72791 120.07321 5005 ft 262 kts 172°
2026-04-25 11:09 22.70967 120.07566 5021 ft 268 kts 172°
2026-04-25 11:10 22.69122 120.07813 5019 ft 268 kts 172°
2026-04-25 11:10 22.67881 120.07981 5019 ft 268 kts 172°
2026-04-25 11:10 22.65431 120.08312 4654 ft 263 kts 172°
2026-04-25 11:10 22.63651 120.08551 4276 ft 254 kts 172°
2026-04-25 11:11 22.61937 120.08782 3902 ft 246 kts 172°
2026-04-25 11:11 22.60283 120.09141 3518 ft 238 kts 155°
2026-04-25 11:11 22.59065 120.10194 3143 ft 214 kts 122°
2026-04-25 11:11 22.58586 120.11577 3010 ft 186 kts 95°
2026-04-25 11:12 22.58457 120.12999 3022 ft 190 kts 93°
2026-04-25 11:12 22.58346 120.14439 3020 ft 190 kts 92°
2026-04-25 11:12 22.58288 120.15848 3022 ft 189 kts 90°
2026-04-25 11:12 22.58242 120.17278 2972 ft 190 kts 90°
2026-04-25 11:13 22.58199 120.18694 2756 ft 189 kts 90°
2026-04-25 11:13 22.58158 120.20065 2511 ft 174 kts 90°
2026-04-25 11:13 22.58121 120.21313 2318 ft 160 kts 90°
2026-04-25 11:13 22.58086 120.22492 2101 ft 155 kts 90°
2026-04-25 11:14 22.58051 120.23643 1881 ft 154 kts 90°
2026-04-25 11:14 22.58016 120.24815 1667 ft 154 kts 90°
2026-04-25 11:14 22.57982 120.25958 1460 ft 154 kts 91°
2026-04-25 11:14 22.57947 120.27115 1251 ft 153 kts 91°
2026-04-25 11:15 22.57912 120.28267 1044 ft 153 kts 91°
2026-04-25 11:15 22.57877 120.29407 850 ft 151 kts 91°
2026-04-25 11:15 22.57838 120.30526 635 ft 147 kts 92°
2026-04-25 11:15 22.57808 120.31631 471 ft 148 kts 90°
2026-04-25 11:16 22.57737 120.33881 64 ft 147 kts 92°
2026-04-25 11:16 22.57710 120.34886 41 ft 109 kts 91°
2026-04-25 11:16 22.57693 120.35452 40 ft 46 kts 92°
2026-04-25 11:17 22.57684 120.35735 40 ft 32 kts 92°
2026-04-25 11:17 22.57674 120.35910 40 ft 10 kts 112°
2026-04-25 11:17 22.57635 120.35922 40 ft 4 kts 185°
2026-04-25 11:17 22.57606 120.35919 40 ft 3 kts 185°
2026-04-25 11:18 22.57587 120.35919 40 ft 2 kts 180°
2026-04-25 11:18 22.57560 120.35918 40 ft 4 kts 181°
2026-04-25 11:18 22.57522 120.35912 40 ft 5 kts 218°
2026-04-25 11:18 22.57514 120.35867 40 ft 6 kts 275°
2026-04-25 11:19 22.57516 120.35796 40 ft 11 kts 271°
2026-04-25 11:19 22.57520 120.35693 40 ft 15 kts 271°
2026-04-25 11:19 22.57523 120.35583 40 ft 16 kts 271°
2026-04-25 11:19 22.57528 120.35448 40 ft 19 kts 276°
2026-04-25 11:20 22.57532 120.35315 40 ft 16 kts 272°
2026-04-25 11:20 22.57537 120.35175 40 ft 19 kts 271°
2026-04-25 11:20 22.57540 120.35052 40 ft 17 kts 271°
2026-04-25 11:20 22.57544 120.34910 40 ft 20 kts 272°
2026-04-25 11:21 22.57548 120.34786 40 ft 15 kts 271°
2026-04-25 11:21 22.57552 120.34675 40 ft 12 kts 272°
2026-04-25 11:21 22.57555 120.34567 40 ft 15 kts 271°
2026-04-25 11:21 22.57559 120.34435 40 ft 19 kts 272°
2026-04-25 11:22 22.57564 120.34291 40 ft 19 kts 271°
2026-04-25 11:22 22.57566 120.34210 40 ft 15 kts 272°
2026-04-25 11:22 22.57551 120.34132 40 ft 6 kts 200°
2026-04-25 11:22 22.57498 120.34127 40 ft 9 kts 182°
2026-04-25 11:23 22.57432 120.34125 40 ft 6 kts 185°
2026-04-25 11:23 22.57410 120.34081 40 ft 7 kts 269°
2026-04-25 11:23 22.57383 120.34051 40 ft 3 kts 170°
2026-04-25 11:23 22.57344 120.34054 40 ft 7 kts 183°
2026-04-25 11:24 22.57281 120.34050 40 ft 7 kts 182°
2026-04-25 11:24 22.57242 120.34046 40 ft 6 kts 195°
2026-04-25 11:24 22.57230 120.34021 40 ft 3 kts 264°
2026-04-25 11:24 22.57230 120.33992 40 ft 1 kts 270°
2026-04-25 11:25 22.57230 120.33983 40 ft 0 kts 270°
2026-04-25 11:25 22.57230 120.33978 40 ft 0 kts 270°
2026-04-25 11:25 22.57230 120.33974 40 ft 1 kts 275°
2026-04-25 11:25 22.57230 120.33968 40 ft 0 kts 273°